OPS 4682 DEB, 38396

Orbit data source: Space-Track

OPS 4682 DEB, 38396 is space debris in LEO originally from a launch on Sat, 03 Apr 1965 UTC launched from the Air Force Western Test Range (AFWTR). Debris objects in space refer to the collection of defunct objects orbiting the Earth. Examples of debris include non-operational satellites, rocket bodies, and fragments generated from explosions, collisions, or faulty payload assembly.

Loading next visibility...
Identifier
38396, 1965-027CZ
Orbit
LEO
Country
Flag of USUS
Related business
Manufacturer
Unknown
Mission
Spacecraft
Bus & Motor
Unknown
Mass
Unknown
Launch date (UTC)
1965-04-03 (61 years ago)
Launch vehicle
Unknown
Launch site
Air Force Western Test Range (AFWTR)
Object type
Payload
Rocket body
Debris
Shape & HBR
Unknown shape, 0.1 m
Radar Cross Section
Small (<0.1 m²)

Expand to show TLE details & history
Last TLE update: 2 days ago

TLE from 2 days ago
0 OPS 4682 DEB
1 38396U 65027CZ  25291.90443100  .00000460  00000-0  15503-2 0  9995
2 38396  90.2519   5.7986 0034526  11.4446 348.7452 12.97771405631907
Epoch: 2025-10-18T21:42Z
TLE epoch observation values (Epoch: 2025-10-18T21:42:22.838Z)
Latitude
-0.00004°
Longitude
12.57469°
Altitude
1,247.809 km
Speed
7.243 km/s
True Right ascension
00h 23m 11s
True Declination
0° 00' 00"
Sunlit
Object was in full shadow at epoch
Visualization orbit readout
Latitude
Unknown
Longitude
Unknown
Altitude
Unknown
Speed
Unknown
Apparent Right ascension
Unknown
Apparent Declination
Unknown
Sunlit
N/A
Visualization observer readout
Local Sidereal Time
18:02:06
Azimuth
Unknown
Elevation
Unknown
Doppler factor
Unknown
Orbital elements
Apogee altitude
1,294.36 km
Perigee altitude
1,241.562 km
Semi-major axis
7,646.098 km
Eccentricity
0.00345
Inclination
90.2519°
RAAN
5.7986°
Arg. of periapsis
11.4446°
True anomaly
348.66765°
Mean anomaly
348.7452°
Eccentric anomaly
348.70646°
Mean motion
3.24626 °/min
Orbital period
110.9 mins
BSTAR
0.0015503
Loading maneuver chart data...
Computing Atmospheric mass density...
Loading historical data...
Loading historical data...
Loading historical data...
Loading historical data...
Loading historical data...
Loading historical data...
Loading historical data...

Documentation

Showing up to 5 results
|